Location: Kampong Paya Jaras Dalam
(3.1833°N, 101.5500°E)
Time: 05:22:52
(UTC+00:00)

ASC 2 Rocket - Pass Details

Date: 15 May 2026
Orbit: 555 x 2327 km, 24.0° (Epoch: 7 June)

Event Time Altitude Azimuth Distance (km) Brightness Sun altitude
Exits shadow 21:13:55 68° 73° (ENE) 655 3.2 -26.1°
Drops below altitude 10° 21:18:15 10° 66° (ENE) 2,192 6.9 -25.1°
Sets 21:21:03 0° 65° (ENE) 3,326 8.2 -24.5°
